Location: Newark
(41.6500°N, 71.4833°W)
Time: 17:37:55
(UTC+00:00)

Courier 1B - Pass Details

Date: 25 January 2020
Orbit: 962 x 1209 km, 28.3° (Epoch: 21 February)

Event Time Altitude Azimuth Distance (km) Brightness Sun altitude
Rises 10:35:23 0° 254° (WSW) 3,978 - -16.7°
Reaches altitude 10° 10:38:36 10° 243° (WSW) 3,052 - -16.1°
Exits shadow 10:39:03 12° 241° (WSW) 2,934 9.6 -16.0°
Maximum altitude 10:44:44 27° 189° (S) 2,095 9.3 -15.0°
Drops below altitude 10° 10:51:02 10° 135° (SE) 3,135 11.1 -13.8°
Sets 10:54:23 0° 124° (SE) 4,104 12.2 -13.2°
